Location: Barcelona
(41.3830°N, 2.1830°E)
Time: 20:52:16
(UTC+01:00)

ISS - Pass Details

Date: 24 February 2021
Orbit: 417 x 422 km, 51.6° (Epoch: 26 February)

Event Time Altitude Azimuth Distance (km) Brightness Sun altitude
Exits shadow 05:35:37 48° 57° (ENE) 550 -2.9 -22.8°
Drops below altitude 10° 05:38:09 10° 55° (NE) 1,497 -0.1 -22.3°
Sets 05:40:15 0° 55° (NE) 2,364 1.1 -22.0°
